Location: Casco Volunteer Fire Department
(44.5576°N, 87.6146°W)
Time: 00:11:54
(UTC+00:00)

BlueWalker 3 - Pass Details

Date: 17 March 2026
Orbit: 449 x 457 km, 53.2° (Epoch: 14 April)

Event Time Altitude Azimuth Distance (km) Brightness Sun altitude
Exits shadow 10:21:13 53° 258° (WSW) 568 1.8 -18.0°
Maximum altitude 10:21:42 60° 219° (SW) 528 1.7 -18.0°
Drops below altitude 10° 10:25:14 10° 139° (SE) 1,590 4.8 -17.4°
Sets 10:27:22 0° 135° (SE) 2,459 5.9 -17.0°
